Outer Banks, North Carolina, United States
Lat: 35.98N, Lon: 75.65W
Wx Zone: NCZ103
Local Info
Past Weather Observations for Today

NOTE: This archive is for the closest National Weather Service station to Outer Banks. Information may differ from the station used for current weather conditions.

Click here for Long-term Archive

Time Weather Temperature Dewpoint Humidity Pressure Winds Precip Visibility
18:35
Overcast
68°F / 20°C 57°F / 14°C 69% 29.83 in
(1010 mb)
SW 3.5 mph
(SW 6 kph)
- 10SM
18:15
Overcast
68°F / 20°C 57°F / 14°C 69% 29.83 in
(1010 mb)
SW 5.8 mph
(SW 9 kph)
- 10SM
17:55
Overcast
66°F / 19°C 59°F / 15°C 78% 29.83 in
(1010 mb)
Calm - 10SM
17:35
Overcast
66°F / 19°C 59°F / 15°C 78% 29.83 in
(1010 mb)
Calm - 10SM
17:15
Mostly Cloudy
68°F / 20°C 59°F / 15°C 73% 29.83 in
(1010 mb)
Calm - 10SM
16:55
Mostly Cloudy
70°F / 21°C 57°F / 14°C 64% 29.83 in
(1010 mb)
Calm - 10SM
16:35
Mostly Cloudy
70°F / 21°C 57°F / 14°C 64% 29.8 in
(1009 mb)
Calm - 10SM
16:15
Partly Cloudy
72°F / 22°C 57°F / 14°C 61% 29.8 in
(1009 mb)
Calm - 10SM
15:55
Mostly Cloudy
72°F / 22°C 57°F / 14°C 61% 29.8 in
(1009 mb)
Calm - 10SM
15:35
Clear
73°F / 23°C 54°F / 12°C 50% 29.8 in
(1009 mb)
Calm - 10SM
15:15
Clear
73°F / 23°C 54°F / 12°C 50% 29.8 in
(1009 mb)
Calm - 10SM
14:55
Clear
73°F / 23°C 54°F / 12°C 50% 29.8 in
(1009 mb)
Calm - 10SM
14:35
Clear
73°F / 23°C 54°F / 12°C 50% 29.83 in
(1010 mb)
SW 3.5 mph
(SW 6 kph)
- 10SM
14:15
Clear
73°F / 23°C 55°F / 13°C 53% 29.83 in
(1010 mb)
SSE 3.5 mph
(SSE 6 kph)
- 10SM
13:55
Clear
72°F / 22°C 55°F / 13°C 57% 29.83 in
(1010 mb)
Calm - 10SM
13:35
Clear
72°F / 22°C 55°F / 13°C 57% 29.83 in
(1010 mb)
Calm - 10SM
13:15
Clear
72°F / 22°C 54°F / 12°C 53% 29.83 in
(1010 mb)
NW 4.6 mph
(NW 7 kph)
- 10SM
12:55
Clear
72°F / 22°C 54°F / 12°C 53% 29.83 in
(1010 mb)
NW 4.6 mph
(NW 7 kph)
- 10SM
12:35
Clear
72°F / 22°C 54°F / 12°C 53% 29.83 in
(1010 mb)
W 4.6 mph
(W 7 kph)
- 10SM
12:15
Clear
72°F / 22°C 55°F / 13°C 57% 29.86 in
(1011 mb)
W 4.6 mph
(W 7 kph)
- 10SM
11:55
Clear
72°F / 22°C 54°F / 12°C 53% 29.86 in
(1011 mb)
W 5.8 mph
(W 9 kph)
- 10SM
11:35
Clear
72°F / 22°C 54°F / 12°C 53% 29.86 in
(1011 mb)
W 5.8 mph
(W 9 kph)
- 10SM
11:15
Clear
70°F / 21°C 55°F / 13°C 60% 29.89 in
(1012 mb)
WNW 3.5 mph
(WNW 6 kph)
- 10SM
10:55
Clear
70°F / 21°C 57°F / 14°C 64% 29.89 in
(1012 mb)
NW 5.8 mph
(NW 9 kph)
- 10SM
10:35
Clear
70°F / 21°C 57°F / 14°C 64% 29.89 in
(1012 mb)
SSW 5.8 mph
(SSW 9 kph)
- 10SM
10:15
Clear
68°F / 20°C 59°F / 15°C 73% 29.89 in
(1012 mb)
W 4.6 mph
(W 7 kph)
- 10SM
09:55
Partly Cloudy
68°F / 20°C 59°F / 15°C 73% 29.89 in
(1012 mb)
W 5.8 mph
(W 9 kph)
- 10SM
09:35
Partly Cloudy
68°F / 20°C 61°F / 16°C 78% 29.89 in
(1012 mb)
W 8.1 mph
(W 13 kph)
- 10SM
09:15
Partly Cloudy
68°F / 20°C 61°F / 16°C 78% 29.92 in
(1013 mb)
W 6.9 mph
(W 11 kph)
- 10SM
08:55
Clear
68°F / 20°C 63°F / 17°C 83% 29.92 in
(1013 mb)
SSW 4.6 mph
(SSW 7 kph)
- 10SM
08:35
Clear
66°F / 19°C 63°F / 17°C 88% 29.92 in
(1013 mb)
SSW 3.5 mph
(SSW 6 kph)
- 10SM
08:15
Partly Cloudy
64°F / 18°C 63°F / 17°C 94% 29.92 in
(1013 mb)
SSW 4.6 mph
(SSW 7 kph)
- 10SM
07:55
Partly Cloudy
64°F / 18°C 63°F / 17°C 94% 29.92 in
(1013 mb)
Calm - 10SM
07:35
Partly Cloudy
64°F / 18°C 63°F / 17°C 94% 29.92 in
(1013 mb)
Calm - 10SM
07:15
Mostly Cloudy
64°F / 18°C 63°F / 17°C 94% 29.92 in
(1013 mb)
Calm - 10SM
06:55
Mostly Cloudy
63°F / 17°C 63°F / 17°C 100% 29.92 in
(1013 mb)
Calm - 10SM
06:35
Clear
63°F / 17°C 61°F / 16°C 94% 29.92 in
(1013 mb)
Calm - 10SM
06:15
Clear
63°F / 17°C 63°F / 17°C 100% 29.92 in
(1013 mb)
Calm - 10SM
05:55
Clear
64°F / 18°C 63°F / 17°C 94% 29.92 in
(1013 mb)
Calm - 10SM
05:35
Mostly Cloudy
64°F / 18°C 63°F / 17°C 94% 29.92 in
(1013 mb)
Calm - 10SM
05:15
Mostly Cloudy
63°F / 17°C 63°F / 17°C 100% 29.92 in
(1013 mb)
S 3.5 mph
(S 6 kph)
- 10SM
04:55
Partly Cloudy
63°F / 17°C 61°F / 16°C 94% 29.92 in
(1013 mb)
Calm - 10SM
04:35
Partly Cloudy
63°F / 17°C 61°F / 16°C 94% 29.92 in
(1013 mb)
Calm - 10SM
04:15
Partly Cloudy
63°F / 17°C 61°F / 16°C 94% 29.92 in
(1013 mb)
Calm - 10SM
03:55
Mostly Cloudy
64°F / 18°C 63°F / 17°C 94% 29.92 in
(1013 mb)
Calm - 10SM
03:35
Overcast
64°F / 18°C 63°F / 17°C 94% 29.92 in
(1013 mb)
SW 3.5 mph
(SW 6 kph)
- 10SM
03:15
Mostly Cloudy
64°F / 18°C 63°F / 17°C 94% 29.92 in
(1013 mb)
S 3.5 mph
(S 6 kph)
- 10SM
02:55
Mostly Cloudy
Drizzle
64°F / 18°C 61°F / 16°C 88% 29.92 in
(1013 mb)
Calm - 10SM
02:35
Overcast
Rain
64°F / 18°C 61°F / 16°C 88% 29.92 in
(1013 mb)
SSE 3.5 mph
(SSE 6 kph)
- 10SM
02:15
Overcast
64°F / 18°C 61°F / 16°C 88% 29.95 in
(1014 mb)
Calm - 10SM
01:55
Partly Cloudy
64°F / 18°C 61°F / 16°C 88% 29.95 in
(1014 mb)
Calm - 10SM
01:35
Mostly Cloudy
64°F / 18°C 61°F / 16°C 88% 29.95 in
(1014 mb)
Calm - 10SM
01:15
Overcast
64°F / 18°C 61°F / 16°C 88% 29.95 in
(1014 mb)
Calm - 10SM
00:55
Mostly Cloudy
64°F / 18°C 61°F / 16°C 88% 29.95 in
(1014 mb)
Calm - 10SM
00:35
Partly Cloudy
64°F / 18°C 61°F / 16°C 88% 29.98 in
(1015 mb)
Calm - 10SM
00:15
Clear
64°F / 18°C 61°F / 16°C 88% 29.98 in
(1015 mb)
Calm - 10SM
Time Weather Temperature Dewpoint Humidity Pressure Winds Precip Visibility


Weather for websites

WeatherForYou.com, LLC is not responsible for any damages or problems caused by this service. Current weather conditions are obtained from the closest station including government and personal stations which may have varying degrees of accuracy. Weather forecasts are derived from the NOAA NDFD. Like all things, this site belongs to Jesus Christ... He just trusts me to maintain it. If you have any questions or comments email webmaster@weatherforyou.com

Copyright © 2014, WeatherForYou.com LLC. All rights reserved.